Regional Weather Roundup
Issued by NWS

Home | Current Version | Previous Version | Graphics & Text | Print | Product List | Glossary On
Versions: 1 2 3 4 5 6 7 8 9 10 11 12 13 14 15 16 17 18 19 20 21 22 23 24 25 26 27
000
ASUS45 KCYS 190610
RWRWY

WYOMING REGIONAL WEATHER ROUNDUP
NATIONAL WEATHER SERVICE CHEYENNE WY
1200 AM MDT TUE SEP 19 2017

NOTE:  "FAIR" INDICATES FEW OR NO CLOUDS BELOW 12,000 FEET
WITH NO SIGNIFICANT WEATHER AND/OR OBSTRUCTIONS TO VISIBILITY.

WYZ001-190700-
YELLOWSTONE NATIONAL PARK

CITY           SKY/WX    TMP DP  RH WIND       PRES   REMARKS
LK YELLOWSTONE   N/A     38  37  97 CALM      29.84F
6HR MIN TEMP:  36; 6HR MAX TEMP:  46; 6HR PCP:  0.31;

W YELLOWSTONE  NOT AVBL

$$
WYZ002>013-054>058-071-098>099-190700-
NORTHERN WYOMING

CITY           SKY/WX    TMP DP  RH WIND       PRES   REMARKS
JACKSON        CLOUDY    43  40  89 S9        29.84F
CODY           CLOUDY    54  38  54 VRB6      29.73F
GREYBULL       LGT RAIN  61  45  55 N18       29.66R
6HR MIN TEMP:  61; 6HR MAX TEMP:  79; 6HR PCP: TRACE;

WORLAND        MOCLDY    58  45  62 N8        29.65R
6HR MIN TEMP:  56; 6HR MAX TEMP:  74;

SHERIDAN       CLOUDY    63  39  41 NW22G28   29.60R
6HR MIN TEMP:  53; 6HR MAX TEMP:  76;

BUFFALO        FAIR      59  33  37 CALM      29.64F
6HR MIN TEMP:  57; 6HR MAX TEMP:  73;

GILLETTE       FAIR      64  35  34 S16       29.61F
6HR MIN TEMP:  57; 6HR MAX TEMP:  71;

HULETT         FAIR      72  34  25 S15G21    29.64F
NEWCASTLE      FAIR      63  34  34 SE15G23   29.70F

$$
WYZ014>020-022>026-101>103-190700-
CENTRAL WYOMING

CITY           SKY/WX    TMP DP  RH WIND       PRES   REMARKS
BIG PINEY      CLOUDY    46  40  79 N10       29.86S
6HR MIN TEMP:  46; 6HR MAX TEMP:  66; 6HR PCP: TRACE;

PINEDALE       RAIN      43  41  93 NW12G18   29.87F
DUBOIS         RAIN      37  36  93 N8        29.84F WCI  31
LANDER           N/A    N/A N/A N/A MISG      29.70F
RIVERTON       FAIR      55  41  59 NW23G33   29.71R
6HR MIN TEMP:  55; 6HR MAX TEMP:  72;

CASPER         FAIR      65  33  30 S17       29.71F
6HR MIN TEMP:  53; 6HR MAX TEMP:  75;

DOUGLAS        FAIR      57  33  40 S8        29.74F
6HR MIN TEMP:  57; 6HR MAX TEMP:  76;


$$
WYZ021-027>030-104>119-190700-
SOUTHERN WYOMING

CITY           SKY/WX    TMP DP  RH WIND       PRES   REMARKS
EVANSTON       CLOUDY    50  46  86 NW6       29.88R
6HR MIN TEMP:  50; 6HR MAX TEMP:  67; 6HR PCP: TRACE;

KEMMERER       LGT RAIN  46  45  93 W18G25    29.87F
FORT BRIDGER   FAIR      55  41  59 W18G24    29.88S
ROCK SPRINGS   FAIR      60  27  28 SW24G31   29.81F
6HR MIN TEMP:  57; 6HR MAX TEMP:  67;

DIXON          FAIR      64  30  28 S14G25    29.90F
RAWLINS        NOT AVBL
SARATOGA       FAIR      61  32  33 S21G32    29.89F
LARAMIE        FAIR      53  27  36 S14       29.91F
6HR MIN TEMP:  51; 6HR MAX TEMP:  69;

CHEYENNE       FAIR      57  31  37 S8        29.86F
6HR MIN TEMP:  56; 6HR MAX TEMP:  73;

TORRINGTON     FAIR      56  41  57 E10       29.74F
6HR MIN TEMP:  52; 6HR MAX TEMP:  79;

PINE BLUFFS    FAIR      61  36  39 SE20G28   29.81F

$$




USA.gov is the U.S. government's official web portal to all federal, state and local government web resources and services.